User: anonymous   Login
Location: Banios
(43.0451°N, 0.2335°E)
Time: 12:05:33
(UTC+00:00)
Language:

A-11 Canister half - Orbit

View from above orbital plane
View from above orbital plane
View from above satellite
View from above satellite

Ground track
Ground track

The orbit data is extracted from the following two-line orbital elements,

1 00051U 60009C   21132.48697680 -.00000026  00000-0  57922-3 0  9995
2 00051  47.2145  49.4732 0107228  60.2970 300.8442 12.18275363704206
Epoch (UTC): 12 May 2021 11:41:14
Eccentricity: 0.0107228
inclination: 47.2145°
perigee height: 1514 km
apogee height: 1685 km
right ascension of ascending node: 49.4732°
argument of perigee: 60.2970°
revolutions per day: 12.18275363
mean anomaly at epoch: 300.8442°
orbit number at epoch: 70420

The dashed part of the orbit path shows where the satellite is in the earth's shadow,  

DLR